TimePDT,TemperatureF,Dew PointF,Humidity,Sea Level PressureIn,VisibilityMPH,Wind Direction,Wind SpeedMPH,Gust SpeedMPH,PrecipitationIn,Events,Conditions,WindDirDegrees,DateUTC
12:53 AM,28.9,23.0,78,29.88,10.0,SSE,3.5,-,N/A,,Clear,150,2012-10-21 07:53:00
1:53 AM,30.9,25.0,79,29.87,10.0,Calm,Calm,-,N/A,,Clear,0,2012-10-21 08:53:00
2:53 AM,28.9,24.1,82,29.87,10.0,Calm,Calm,-,N/A,,Clear,0,2012-10-21 09:53:00
3:53 AM,27.0,21.0,78,29.88,10.0,ENE,3.5,-,N/A,,Partly Cloudy,70,2012-10-21 10:53:00
4:50 AM,26.6,21.2,80,29.84,10.0,Calm,Calm,-,N/A,,Scattered Clouds,0,2012-10-21 11:50:00
4:53 AM,27.0,19.9,75,29.87,10.0,ESE,3.5,-,N/A,,Mostly Cloudy,110,2012-10-21 11:53:00
5:10 AM,26.6,21.2,80,29.83,10.0,Calm,Calm,-,N/A,,Mostly Cloudy,0,2012-10-21 12:10:00
5:53 AM,28.9,24.1,82,29.88,10.0,Calm,Calm,-,N/A,,Overcast,0,2012-10-21 12:53:00
6:11 AM,28.4,24.8,86,29.83,1.8,NNW,3.5,-,N/A,,Overcast,330,2012-10-21 13:11:00
6:16 AM,30.2,26.6,86,29.84,0.8,Calm,Calm,-,N/A,,Overcast,0,2012-10-21 13:16:00
6:45 AM,28.4,23.0,80,29.85,1.5,Calm,Calm,-,N/A,,Haze,0,2012-10-21 13:45:00
6:47 AM,28.4,23.0,80,29.85,4.0,Calm,Calm,-,N/A,,Haze,0,2012-10-21 13:47:00
6:53 AM,27.0,21.9,81,29.89,10.0,Calm,Calm,-,N/A,,Overcast,0,2012-10-21 13:53:00
7:17 AM,26.6,21.2,80,29.85,1.8,Calm,Calm,-,N/A,,Haze,0,2012-10-21 14:17:00
7:22 AM,26.6,23.0,86,29.85,0.8,Calm,Calm,-,N/A,,Overcast,0,2012-10-21 14:22:00
7:53 AM,28.9,25.0,85,29.90,0.2,NNE,3.5,-,N/A,Fog,Light Freezing Fog,20,2012-10-21 14:53:00
8:53 AM,30.0,26.1,85,29.91,0.2,West,3.5,-,N/A,Fog,Light Freezing Fog,270,2012-10-21 15:53:00
9:53 AM,33.1,28.9,85,29.92,0.8,SE,6.9,-,N/A,,Overcast,140,2012-10-21 16:53:00
9:56 AM,33.8,28.4,81,29.88,1.2,SE,6.9,-,N/A,,Overcast,140,2012-10-21 16:56:00
10:04 AM,33.8,28.4,81,29.88,0.8,SE,6.9,-,N/A,,Overcast,130,2012-10-21 17:04:00
10:53 AM,34.0,28.9,82,29.92,0.5,ESE,3.5,-,N/A,,Haze,120,2012-10-21 17:53:00
11:19 AM,35.6,30.2,81,29.87,1.0,Variable,4.6,-,N/A,,Haze,0,2012-10-21 18:19:00
11:29 AM,35.6,30.2,81,29.87,0.8,South,4.6,-,N/A,,Overcast,170,2012-10-21 18:29:00
11:34 AM,35.6,30.2,81,29.87,1.2,SSE,4.6,-,N/A,,Haze,150,2012-10-21 18:34:00
11:42 AM,35.6,30.2,81,29.87,3.0,ESE,4.6,-,N/A,,Haze,110,2012-10-21 18:42:00
11:53 AM,39.0,30.9,73,29.90,10.0,Calm,Calm,-,N/A,,Mostly Cloudy,0,2012-10-21 18:53:00
12:02 PM,39.2,30.2,70,29.86,10.0,ESE,3.5,-,N/A,,Scattered Clouds,120,2012-10-21 19:02:00
12:53 PM,45.0,28.9,53,29.88,10.0,Calm,Calm,-,N/A,,Clear,0,2012-10-21 19:53:00
1:53 PM,46.0,28.9,51,29.86,10.0,Calm,Calm,-,N/A,,Mostly Cloudy,0,2012-10-21 20:53:00
2:53 PM,48.0,28.9,48,29.85,10.0,Calm,Calm,-,0.00,,Mostly Cloudy,0,2012-10-21 21:53:00
3:53 PM,50.0,30.0,46,29.84,10.0,ENE,4.6,-,N/A,,Mostly Cloudy,60,2012-10-21 22:53:00
4:53 PM,51.1,28.9,43,29.83,10.0,NE,3.5,-,N/A,,Clear,50,2012-10-21 23:53:00
5:53 PM,46.0,28.9,51,29.84,10.0,Calm,Calm,-,N/A,,Clear,0,2012-10-22 00:53:00
6:53 PM,37.0,27.0,67,29.85,10.0,Calm,Calm,-,N/A,,Clear,0,2012-10-22 01:53:00
7:53 PM,36.0,26.1,67,29.85,10.0,East,3.5,-,N/A,,Clear,80,2012-10-22 02:53:00
8:53 PM,34.0,25.0,70,29.85,10.0,Calm,Calm,-,N/A,,Clear,0,2012-10-22 03:53:00
9:53 PM,32.0,24.1,73,29.85,10.0,Calm,Calm,-,N/A,,Clear,0,2012-10-22 04:53:00
10:53 PM,34.0,27.0,75,29.84,10.0,Calm,Calm,-,N/A,,Mostly Cloudy,0,2012-10-22 05:53:00
11:53 PM,37.0,28.0,70,29.82,10.0,Calm,Calm,-,N/A,,Overcast,0,2012-10-22 06:53:00